Home   Weather   Achern   Past weeks

Flag for Germany Past Weather in Achern, Baden-Württemberg, Germany — Yesterday and Last 2 Weeks

Now
66 °F

Passing clouds.


Feels Like: 66 °F
Forecast: 44 / 51 °F
Wind: 8 mph from North

Location: Karlsruhe - Baden Wurttemberg

Current Time: Apr 30, 2017 at 2:59:30 pm

Latest Report: Apr 30, 2017 at 2:20 pm


Visibility: N/A

Pressure: 29.80 "Hg

Humidity: 32%

Dew Point: 36 °F

Location of AchernLocation

Past Weather in Achern — Graph

°F

Achern Temperature Yesterday

Maximum temperature yesterday: 61 °F (at 4:20 pm)
Minimum temperature yesterday: 39 °F (at 5:20 am)
Average temperature yesterday: 52 °F

High & Low Weather Summary for the Past Weeks

 TemperatureHumidityPressure
High64 °F (Apr 24, 4:20 pm)100% (Apr 16, 5:50 am)30.60 "Hg (Apr 16, 5:50 am)
Low27 °F (Apr 20, 5:50 am)25% (Apr 21, 3:20 pm)29.74 "Hg (Apr 25, 4:50 am)
Average47 °F68%30.13 "Hg
* Reported Apr 15 1:20 pm — Apr 30 1:50 pm, Achern, Weather by CustomWeather, © 2017

Note: Actual official high and low records may vary slightly from our data, if they occured in-between our weather recording intervals... More about our weather records

Advertising

Achern Weather History for the Previous 24 Hours

Scroll right to see more
 ConditionsComfort  
Time TempWeatherWind HumidityBarometerVisibility
1:50 pm
Sun, Apr 30
64 °FPassing clouds.7 mph30%29.80 "HgN/A
1:20 pm63 °FPassing clouds.7 mph32%29.83 "HgN/A
12:50 pm63 °FPassing clouds.8 mph34%29.83 "HgN/A
12:20 pm61 °FPassing clouds.7 mph42%29.86 "HgN/A
11:50 am61 °FPassing clouds.6 mph36%29.86 "HgN/A
11:20 am59 °FPassing clouds.5 mph45%29.86 "HgN/A
10:50 am57 °FSunny.3 mph48%29.89 "Hg10 mi
10:20 am54 °FSunny.3 mph58%29.89 "Hg10 mi
9:50 am52 °FSunny.3 mph62%29.92 "Hg10 mi
9:20 am50 °FSunny.3 mph67%29.92 "Hg10 mi
8:50 am46 °FPassing clouds.5 mph71%29.92 "HgN/A
8:20 am45 °FPassing clouds.6 mph76%29.92 "HgN/A
7:50 am43 °FSunny.6 mph81%29.92 "Hg10 mi
7:20 am39 °FSunny.6 mph87%29.95 "Hg10 mi
6:50 am37 °FSunny.5 mph93%29.95 "Hg10 mi
6:20 am37 °FSunny.3 mph93%29.95 "Hg10 mi
5:50 am37 °FClear.3 mph93%29.95 "Hg10 mi
5:20 am37 °FClear.2 mph93%29.95 "Hg10 mi
4:50 am37 °FClear.1 mph93%29.95 "Hg10 mi
3:50 am37 °FClear.2 mph87%29.95 "Hg10 mi
2:50 am41 °FClear.1 mph81%29.95 "Hg10 mi
1:50 am43 °FClear.2 mph76%29.95 "Hg10 mi
1:20 am43 °FClear.2 mph76%29.95 "Hg10 mi
12:20 am43 °FClear.7 mph76%29.95 "Hg10 mi
11:50 pm
Sat, Apr 29
46 °FClear.6 mph66%29.98 "Hg10 mi
11:20 pm46 °FClear.5 mph66%29.98 "Hg10 mi
10:50 pm48 °FClear.6 mph62%29.98 "Hg10 mi
10:20 pm48 °FPassing clouds.5 mph62%29.98 "HgN/A
9:20 pm52 °FClear.5 mph50%29.98 "Hg10 mi
8:50 pm54 °FClear.5 mph44%29.98 "Hg10 mi
8:20 pm55 °FSunny.5 mph44%29.98 "Hg10 mi
7:50 pm59 °FSunny.2 mph34%29.98 "Hg10 mi
7:20 pm59 °FSunny.3 mph34%29.98 "Hg10 mi
6:50 pm59 °FSunny.3 mph31%29.98 "Hg10 mi
6:20 pm61 °FSunny.2 mph31%29.98 "Hg10 mi
5:50 pm59 °FPassing clouds.5 mph34%29.98 "HgN/A
5:20 pm61 °FSunny.2 mph31%30.01 "Hg10 mi
4:50 pm59 °FPassing clouds.5 mph34%30.01 "HgN/A
4:20 pm61 °FPassing clouds.6 mph36%30.01 "HgN/A
3:50 pm59 °FSunny.3 mph34%30.01 "Hg10 mi
2:20 pm59 °FPassing clouds.8 mph36%30.04 "HgN/A
Weather by CustomWeather, © 2017

See weather overviewHow to use our weather pages